Time,TemperatureF,DewpointF,PressureIn,WindDirection,WindDirectionDegrees,WindSpeedMPH,WindSpeedGustMPH,Humidity,HourlyPrecipIn,Conditions,Clouds,dailyrainin,SoftwareType,DateUTC
2013-02-16 00:00:00,12.2,10.3,30.42,NNW,343,0.0,0.0,92,0.00,,,0.00,Wunderground v.1.15,2013-02-16 06:00:00,
2013-02-16 00:05:00,12.0,9.9,30.41,NNW,338,0.0,0.0,91,0.00,,,0.00,Wunderground v.1.15,2013-02-16 06:05:00,
2013-02-16 00:15:00,12.1,10.2,30.41,WNW,297,0.0,0.0,92,0.00,,,0.00,Wunderground v.1.15,2013-02-16 06:15:00,
2013-02-16 00:25:00,11.8,9.7,30.41,West,277,1.0,1.0,91,0.00,,,0.00,Wunderground v.1.15,2013-02-16 06:25:00,
2013-02-16 00:35:00,10.1,7.5,30.42,West,278,2.0,2.0,89,0.00,,,0.00,Wunderground v.1.15,2013-02-16 06:35:00,
2013-02-16 00:45:00,8.9,6.6,30.41,West,275,1.0,2.0,90,0.00,,,0.00,Wunderground v.1.15,2013-02-16 06:45:00,
2013-02-16 00:55:00,9.4,7.3,30.41,NW,321,0.0,0.0,91,0.00,,,0.00,Wunderground v.1.15,2013-02-16 06:55:00,
2013-02-16 01:00:00,9.3,7.2,30.40,West,275,0.0,2.0,91,0.00,,,0.00,Wunderground v.1.15,2013-02-16 07:00:00,
2013-02-16 01:10:00,8.6,6.0,30.40,WNW,282,2.0,2.0,89,0.00,,,0.00,Wunderground v.1.15,2013-02-16 07:10:00,
2013-02-16 01:20:00,9.0,6.9,30.40,NW,314,1.0,2.0,91,0.00,,,0.00,Wunderground v.1.15,2013-02-16 07:20:00,
2013-02-16 01:30:00,9.6,7.5,30.40,NW,308,1.0,1.0,91,0.00,,,0.00,Wunderground v.1.15,2013-02-16 07:30:00,
2013-02-16 01:40:00,9.2,6.9,30.40,NW,325,1.0,1.0,90,0.00,,,0.00,Wunderground v.1.15,2013-02-16 07:40:00,
2013-02-16 01:50:00,9.1,7.0,30.40,NNW,332,0.0,1.0,91,0.00,,,0.00,Wunderground v.1.15,2013-02-16 07:50:00,
2013-02-16 02:00:00,8.9,6.6,30.39,North,3,1.0,1.0,90,0.00,,,0.00,Wunderground v.1.15,2013-02-16 08:00:00,
2013-02-16 02:10:00,8.9,6.6,30.39,North,1,1.0,1.0,90,0.00,,,0.00,Wunderground v.1.15,2013-02-16 08:10:00,
2013-02-16 02:15:00,9.0,6.9,30.39,North,1,0.0,1.0,91,0.00,,,0.00,Wunderground v.1.15,2013-02-16 08:15:00,
2013-02-16 02:20:00,9.2,7.1,30.39,North,1,0.0,0.0,91,0.00,,,0.00,Wunderground v.1.15,2013-02-16 08:20:00,
2013-02-16 02:30:00,8.8,6.5,30.38,North,359,0.0,1.0,90,0.00,,,0.00,Wunderground v.1.15,2013-02-16 08:30:00,
2013-02-16 02:40:00,8.9,6.8,30.38,WNW,298,1.0,1.0,91,0.00,,,0.00,Wunderground v.1.15,2013-02-16 08:40:00,
2013-02-16 02:50:00,8.7,6.4,30.37,WNW,298,0.0,0.0,90,0.00,,,0.00,Wunderground v.1.15,2013-02-16 08:50:00,
2013-02-16 03:00:00,9.1,7.0,30.37,WNW,298,0.0,0.0,91,0.00,,,0.00,Wunderground v.1.15,2013-02-16 09:00:00,
2013-02-16 03:10:00,8.3,5.7,30.37,WNW,298,0.0,0.0,89,0.00,,,0.00,Wunderground v.1.15,2013-02-16 09:10:00,
2013-02-16 03:15:00,7.1,4.3,30.37,West,273,0.0,0.0,88,0.00,,,0.00,Wunderground v.1.15,2013-02-16 09:15:00,
2013-02-16 03:25:00,5.1,2.1,30.37,West,270,0.0,0.0,87,0.00,,,0.00,Wunderground v.1.15,2013-02-16 09:25:00,
2013-02-16 03:35:00,5.9,3.6,30.37,West,278,0.0,0.0,90,0.00,,,0.00,Wunderground v.1.15,2013-02-16 09:35:00,
2013-02-16 03:40:00,6.3,4.0,30.37,West,277,0.0,0.0,90,0.00,,,0.00,Wunderground v.1.15,2013-02-16 09:40:00,
2013-02-16 03:50:00,7.1,5.0,30.37,WNW,290,0.0,0.0,91,0.00,,,0.00,Wunderground v.1.15,2013-02-16 09:50:00,
2013-02-16 04:00:00,7.7,5.6,30.37,WNW,288,0.0,0.0,91,0.00,,,0.00,Wunderground v.1.15,2013-02-16 10:00:00,
2013-02-16 04:10:00,8.2,6.1,30.37,WNW,287,0.0,0.0,91,0.00,,,0.00,Wunderground v.1.15,2013-02-16 10:10:00,
2013-02-16 04:15:00,8.6,6.5,30.36,WNW,287,0.0,0.0,91,0.00,,,0.00,Wunderground v.1.15,2013-02-16 10:15:00,
2013-02-16 04:25:00,7.9,5.3,30.36,WNW,287,0.0,0.0,89,0.00,,,0.00,Wunderground v.1.15,2013-02-16 10:25:00,
2013-02-16 04:35:00,7.0,4.4,30.35,WNW,287,0.0,0.0,89,0.00,,,0.00,Wunderground v.1.15,2013-02-16 10:35:00,
2013-02-16 04:45:00,6.9,4.3,30.35,WNW,286,0.0,0.0,89,0.00,,,0.00,Wunderground v.1.15,2013-02-16 10:45:00,
2013-02-16 04:55:00,6.8,4.2,30.35,WSW,240,0.0,0.0,89,0.00,,,0.00,Wunderground v.1.15,2013-02-16 10:55:00,
2013-02-16 05:00:00,6.8,4.2,30.35,WSW,240,0.0,0.0,89,0.00,,,0.00,Wunderground v.1.15,2013-02-16 11:00:00,
2013-02-16 05:10:00,6.4,3.9,30.34,WSW,240,0.0,0.0,89,0.00,,,0.00,Wunderground v.1.15,2013-02-16 11:10:00,
2013-02-16 05:15:00,6.4,3.9,30.34,WSW,240,0.0,0.0,89,0.00,,,0.00,Wunderground v.1.15,2013-02-16 11:15:00,
2013-02-16 05:25:00,7.6,5.3,30.34,SE,134,0.0,0.0,90,0.00,,,0.00,Wunderground v.1.15,2013-02-16 11:25:00,
2013-02-16 05:35:00,7.0,4.4,30.35,SE,134,0.0,0.0,89,0.00,,,0.00,Wunderground v.1.15,2013-02-16 11:35:00,
2013-02-16 05:45:00,6.1,3.3,30.34,SE,134,0.0,0.0,88,0.00,,,0.00,Wunderground v.1.15,2013-02-16 11:45:00,
2013-02-16 05:55:00,6.4,3.9,30.33,SSE,150,0.0,1.0,89,0.00,,,0.00,Wunderground v.1.15,2013-02-16 11:55:00,
2013-02-16 06:00:00,6.9,4.6,30.33,SSE,162,1.0,1.0,90,0.00,,,0.00,Wunderground v.1.15,2013-02-16 12:00:00,
2013-02-16 06:10:00,7.3,5.0,30.33,SSE,162,0.0,0.0,90,0.00,,,0.00,Wunderground v.1.15,2013-02-16 12:10:00,
2013-02-16 06:20:00,8.4,6.3,30.33,SSE,150,1.0,1.0,91,0.00,,,0.00,Wunderground v.1.15,2013-02-16 12:20:00,
2013-02-16 06:30:00,8.7,6.4,30.32,SSE,163,1.0,1.0,90,0.00,,,0.00,Wunderground v.1.15,2013-02-16 12:30:00,
2013-02-16 06:40:00,8.9,6.6,30.31,SSE,160,1.0,1.0,90,0.00,,,0.00,Wunderground v.1.15,2013-02-16 12:40:00,
2013-02-16 06:50:00,9.4,7.1,30.31,South,170,1.0,1.0,90,0.00,,,0.00,Wunderground v.1.15,2013-02-16 12:50:00,
2013-02-16 07:00:00,9.4,7.1,30.31,South,177,1.0,1.0,90,0.00,,,0.00,Wunderground v.1.15,2013-02-16 13:00:00,
2013-02-16 07:10:00,10.2,8.1,30.30,SW,228,1.0,2.0,91,0.00,,,0.00,Wunderground v.1.15,2013-02-16 13:10:00,
2013-02-16 07:15:00,10.9,9.0,30.30,SSW,194,2.0,2.0,92,0.00,,,0.00,Wunderground v.1.15,2013-02-16 13:15:00,
2013-02-16 07:20:00,11.3,9.2,30.30,SSE,154,1.0,1.0,91,0.00,,,0.00,Wunderground v.1.15,2013-02-16 13:20:00,
2013-02-16 07:30:00,11.8,9.7,30.30,SSE,152,1.0,2.0,91,0.00,,,0.00,Wunderground v.1.15,2013-02-16 13:30:00,
2013-02-16 07:40:00,12.2,10.1,30.29,SSW,200,1.0,2.0,91,0.00,,,0.00,Wunderground v.1.15,2013-02-16 13:40:00,
2013-02-16 07:50:00,13.0,11.1,30.29,South,190,1.0,2.0,92,0.00,,,0.00,Wunderground v.1.15,2013-02-16 13:50:00,
2013-02-16 08:00:00,14.0,12.1,30.29,South,170,2.0,2.0,92,0.00,,,0.00,Wunderground v.1.15,2013-02-16 14:00:00,
2013-02-16 08:10:00,14.9,13.0,30.28,South,186,2.0,3.0,92,0.00,,,0.00,Wunderground v.1.15,2013-02-16 14:10:00,
2013-02-16 08:15:00,15.4,13.5,30.28,South,172,3.0,3.0,92,0.00,,,0.00,Wunderground v.1.15,2013-02-16 14:15:00,
2013-02-16 08:25:00,16.1,14.2,30.28,South,187,3.0,4.0,92,0.00,,,0.00,Wunderground v.1.15,2013-02-16 14:25:00,
2013-02-16 08:35:00,16.8,14.9,30.27,South,183,3.0,4.0,92,0.00,,,0.00,Wunderground v.1.15,2013-02-16 14:35:00,
2013-02-16 08:45:00,17.1,14.9,30.27,SSE,162,4.0,4.0,91,0.00,,,0.00,Wunderground v.1.15,2013-02-16 14:45:00,
2013-02-16 08:55:00,17.3,15.1,30.27,SSE,152,4.0,4.0,91,0.00,,,0.00,Wunderground v.1.15,2013-02-16 14:55:00,
2013-02-16 09:00:00,17.5,15.3,30.27,South,181,4.0,4.0,91,0.00,,,0.00,Wunderground v.1.15,2013-02-16 15:00:00,
2013-02-16 09:10:00,18.2,16.0,30.27,South,172,4.0,4.0,91,0.00,,,0.00,Wunderground v.1.15,2013-02-16 15:10:00,
2013-02-16 09:20:00,18.9,16.7,30.26,South,190,4.0,5.0,91,0.00,,,0.00,Wunderground v.1.15,2013-02-16 15:20:00,
2013-02-16 09:30:00,19.8,17.6,30.26,SSW,200,5.0,5.0,91,0.00,,,0.00,Wunderground v.1.15,2013-02-16 15:30:00,
2013-02-16 09:40:00,20.9,18.2,30.26,South,186,5.0,7.0,89,0.00,,,0.00,Wunderground v.1.15,2013-02-16 15:40:00,
2013-02-16 09:50:00,21.8,18.3,30.25,South,176,7.0,8.0,86,0.00,,,0.00,Wunderground v.1.15,2013-02-16 15:50:00,
2013-02-16 10:00:00,22.7,18.9,30.25,SSW,195,7.0,7.0,85,0.00,,,0.00,Wunderground v.1.15,2013-02-16 16:00:00,
2013-02-16 10:10:00,23.5,19.1,30.25,SW,219,7.0,8.0,83,0.00,,,0.00,Wunderground v.1.15,2013-02-16 16:10:00,
2013-02-16 10:15:00,23.9,18.9,30.24,SW,219,8.0,11.0,81,0.00,,,0.00,Wunderground v.1.15,2013-02-16 16:15:00,
2013-02-16 10:25:00,24.5,19.2,30.24,SSW,199,9.0,11.0,80,0.00,,,0.00,Wunderground v.1.15,2013-02-16 16:25:00,
2013-02-16 10:35:00,24.9,19.3,30.24,SSW,205,9.0,10.0,79,0.00,,,0.00,Wunderground v.1.15,2013-02-16 16:35:00,
2013-02-16 10:45:00,25.4,19.5,30.23,SSW,199,8.0,9.0,78,0.00,,,0.00,Wunderground v.1.15,2013-02-16 16:45:00,
2013-02-16 10:55:00,26.4,20.5,30.23,SW,221,7.0,7.0,78,0.00,,,0.00,Wunderground v.1.15,2013-02-16 16:55:00,
2013-02-16 11:00:00,26.9,20.7,30.23,SW,235,8.0,8.0,77,0.00,,,0.00,Wunderground v.1.15,2013-02-16 17:00:00,
2013-02-16 11:10:00,27.9,21.9,30.22,SW,225,8.0,8.0,78,0.00,,,0.00,Wunderground v.1.15,2013-02-16 17:10:00,
2013-02-16 11:20:00,28.4,21.8,30.22,WSW,252,7.0,7.0,76,0.00,,,0.00,Wunderground v.1.15,2013-02-16 17:20:00,
2013-02-16 11:30:00,28.7,22.4,30.21,SW,219,8.0,10.0,77,0.00,,,0.00,Wunderground v.1.15,2013-02-16 17:30:00,
2013-02-16 11:40:00,29.3,23.0,30.20,SW,215,8.0,8.0,77,0.00,,,0.00,Wunderground v.1.15,2013-02-16 17:40:00,
2013-02-16 11:50:00,29.7,23.4,30.20,SSW,205,7.0,9.0,77,0.00,,,0.00,Wunderground v.1.15,2013-02-16 17:50:00,
2013-02-16 12:00:00,29.9,23.6,30.19,SW,224,8.0,11.0,77,0.00,,,0.00,Wunderground v.1.15,2013-02-16 18:00:00,
2013-02-16 12:10:00,30.0,23.7,30.19,SSW,210,9.0,9.0,77,0.00,,,0.00,Wunderground v.1.15,2013-02-16 18:10:00,
2013-02-16 12:15:00,30.1,24.1,30.19,SW,217,8.0,9.0,78,0.00,,,0.00,Wunderground v.1.15,2013-02-16 18:15:00,
2013-02-16 12:25:00,30.3,24.0,30.18,SW,226,7.0,11.0,77,0.00,,,0.00,Wunderground v.1.15,2013-02-16 18:25:00,
2013-02-16 12:30:00,30.4,24.1,30.18,SW,231,7.0,7.0,77,0.00,,,0.00,Wunderground v.1.15,2013-02-16 18:30:00,
2013-02-16 12:40:00,30.7,24.0,30.18,SW,235,7.0,8.0,76,0.00,,,0.00,Wunderground v.1.15,2013-02-16 18:40:00,
2013-02-16 12:50:00,30.9,24.5,30.18,SSW,194,8.0,8.0,77,0.00,,,0.00,Wunderground v.1.15,2013-02-16 18:50:00,
2013-02-16 13:00:00,31.3,24.9,30.17,South,174,7.0,9.0,77,0.00,,,0.00,Wunderground v.1.15,2013-02-16 19:00:00,
2013-02-16 13:10:00,31.4,23.4,30.17,SW,235,9.0,10.0,72,0.00,,,0.00,Wunderground v.1.15,2013-02-16 19:10:00,
2013-02-16 13:15:00,31.4,22.7,30.17,SSW,198,10.0,10.0,70,0.00,,,0.00,Wunderground v.1.15,2013-02-16 19:15:00,
2013-02-16 13:25:00,31.4,23.1,30.16,SSW,211,9.0,12.0,71,0.00,,,0.00,Wunderground v.1.15,2013-02-16 19:25:00,
2013-02-16 13:35:00,31.2,22.9,30.15,SSW,195,9.0,11.0,71,0.00,,,0.00,Wunderground v.1.15,2013-02-16 19:35:00,
2013-02-16 13:45:00,31.1,23.5,30.15,South,185,9.0,9.0,73,0.00,,,0.00,Wunderground v.1.15,2013-02-16 19:45:00,
2013-02-16 13:55:00,31.1,24.1,30.15,SSW,197,9.0,10.0,75,0.00,,,0.00,Wunderground v.1.15,2013-02-16 19:55:00,
2013-02-16 14:00:00,31.0,23.7,30.14,South,175,9.0,11.0,74,0.00,,,0.00,Wunderground v.1.15,2013-02-16 20:00:00,
2013-02-16 14:05:00,31.0,23.7,30.14,South,178,9.0,11.0,74,0.00,,,0.00,Wunderground v.1.15,2013-02-16 20:05:00,
2013-02-16 14:15:00,31.5,25.1,30.14,SSE,165,8.0,9.0,77,0.00,,,0.00,Wunderground v.1.15,2013-02-16 20:15:00,
2013-02-16 14:25:00,31.7,24.7,30.14,South,186,9.0,11.0,75,0.00,,,0.00,Wunderground v.1.15,2013-02-16 20:25:00,
2013-02-16 14:30:00,31.9,25.2,30.13,South,179,10.0,12.0,76,0.00,,,0.00,Wunderground v.1.15,2013-02-16 20:30:00,
2013-02-16 14:40:00,31.9,24.6,30.13,South,186,12.0,14.0,74,0.00,,,0.00,Wunderground v.1.15,2013-02-16 20:40:00,
2013-02-16 14:45:00,31.9,25.2,30.13,SSW,203,11.0,14.0,76,0.00,,,0.00,Wunderground v.1.15,2013-02-16 20:45:00,
2013-02-16 14:55:00,32.2,25.5,30.13,South,176,10.0,11.0,76,0.00,,,0.00,Wunderground v.1.15,2013-02-16 20:55:00,
2013-02-16 15:00:00,32.4,26.0,30.13,SSW,194,10.0,10.0,77,0.00,,,0.00,Wunderground v.1.15,2013-02-16 21:00:00,
2013-02-16 15:10:00,32.8,26.4,30.13,South,177,9.0,12.0,77,0.00,,,0.00,Wunderground v.1.15,2013-02-16 21:10:00,
2013-02-16 15:20:00,33.0,26.3,30.13,SSE,163,10.0,10.0,76,0.00,,,0.00,Wunderground v.1.15,2013-02-16 21:20:00,
2013-02-16 15:30:00,33.2,26.5,30.13,SSW,211,10.0,11.0,76,0.00,,,0.00,Wunderground v.1.15,2013-02-16 21:30:00,
2013-02-16 15:40:00,33.2,26.8,30.13,SSE,166,9.0,9.0,77,0.00,,,0.00,Wunderground v.1.15,2013-02-16 21:40:00,
2013-02-16 15:50:00,33.2,27.4,30.13,SSE,153,8.0,8.0,79,0.00,,,0.00,Wunderground v.1.15,2013-02-16 21:50:00,
2013-02-16 16:00:00,33.2,27.1,30.12,SSE,150,8.0,8.0,78,0.00,,,0.00,Wunderground v.1.15,2013-02-16 22:00:00,
2013-02-16 16:10:00,33.3,27.2,30.12,South,174,7.0,7.0,78,0.00,,,0.00,Wunderground v.1.15,2013-02-16 22:10:00,
2013-02-16 16:15:00,33.6,27.5,30.12,SSE,159,7.0,8.0,78,0.00,,,0.00,Wunderground v.1.15,2013-02-16 22:15:00,
2013-02-16 16:25:00,34.3,28.2,30.12,South,174,7.0,9.0,78,0.00,,,0.00,Wunderground v.1.15,2013-02-16 22:25:00,
2013-02-16 16:35:00,34.7,28.5,30.11,South,170,6.0,6.0,78,0.00,,,0.00,Wunderground v.1.15,2013-02-16 22:35:00,
2013-02-16 16:45:00,34.7,28.2,30.12,South,187,5.0,6.0,77,0.00,,,0.00,Wunderground v.1.15,2013-02-16 22:45:00,
2013-02-16 16:55:00,34.5,28.0,30.11,SSE,159,6.0,7.0,77,0.00,,,0.00,Wunderground v.1.15,2013-02-16 22:55:00,
2013-02-16 17:00:00,34.4,27.9,30.11,South,179,6.0,7.0,77,0.00,,,0.00,Wunderground v.1.15,2013-02-16 23:00:00,
2013-02-16 17:10:00,34.2,27.4,30.11,SSE,149,7.0,7.0,76,0.00,,,0.00,Wunderground v.1.15,2013-02-16 23:10:00,
2013-02-16 17:20:00,33.8,28.0,30.10,South,173,6.0,6.0,79,0.00,,,0.00,Wunderground v.1.15,2013-02-16 23:20:00,
2013-02-16 17:30:00,33.3,27.2,30.10,SSE,154,6.0,7.0,78,0.00,,,0.00,Wunderground v.1.15,2013-02-16 23:30:00,
2013-02-16 17:40:00,32.9,27.4,30.11,SSE,152,6.0,6.0,80,0.00,,,0.00,Wunderground v.1.15,2013-02-16 23:40:00,
2013-02-16 17:50:00,32.7,27.2,30.11,SSE,155,5.0,5.0,80,0.00,,,0.00,Wunderground v.1.15,2013-02-16 23:50:00,
2013-02-16 18:00:00,32.3,27.1,30.11,SE,125,4.0,4.0,81,0.00,,,0.00,Wunderground v.1.15,2013-02-17 00:00:00,
2013-02-16 18:10:00,32.0,27.1,30.11,SE,131,4.0,5.0,82,0.00,,,0.00,Wunderground v.1.15,2013-02-17 00:10:00,
2013-02-16 18:15:00,31.9,27.3,30.10,SE,136,4.0,5.0,83,0.00,,,0.00,Wunderground v.1.15,2013-02-17 00:15:00,
2013-02-16 18:25:00,31.7,27.1,30.11,SE,135,4.0,6.0,83,0.00,,,0.00,Wunderground v.1.15,2013-02-17 00:25:00,
2013-02-16 18:35:00,31.4,26.8,30.11,SE,135,6.0,7.0,83,0.00,,,0.00,Wunderground v.1.15,2013-02-17 00:35:00,
2013-02-16 18:45:00,31.1,26.8,30.11,ESE,122,6.0,8.0,84,0.00,,,0.00,Wunderground v.1.15,2013-02-17 00:45:00,
2013-02-16 18:55:00,30.8,26.5,30.11,SE,133,6.0,6.0,84,0.00,,,0.00,Wunderground v.1.15,2013-02-17 00:55:00,
2013-02-16 19:00:00,30.7,26.4,30.10,SE,144,6.0,6.0,84,0.00,,,0.00,Wunderground v.1.15,2013-02-17 01:00:00,
2013-02-16 19:10:00,30.5,26.0,30.10,SE,127,7.0,8.0,83,0.00,,,0.00,Wunderground v.1.15,2013-02-17 01:10:00,
2013-02-16 19:20:00,30.3,25.8,30.10,SE,145,6.0,6.0,83,0.00,,,0.00,Wunderground v.1.15,2013-02-17 01:20:00,
2013-02-16 19:30:00,30.3,25.8,30.10,SE,134,5.0,9.0,83,0.00,,,0.00,Wunderground v.1.15,2013-02-17 01:30:00,
2013-02-16 19:40:00,30.2,25.9,30.10,SE,145,5.0,5.0,84,0.00,,,0.00,Wunderground v.1.15,2013-02-17 01:40:00,
2013-02-16 19:50:00,30.1,25.6,30.10,SE,131,5.0,5.0,83,0.00,,,0.00,Wunderground v.1.15,2013-02-17 01:50:00,
2013-02-16 20:00:00,30.1,25.6,30.10,SE,131,5.0,5.0,83,0.00,,,0.00,Wunderground v.1.15,2013-02-17 02:00:00,
2013-02-16 20:10:00,30.1,25.6,30.10,SE,134,5.0,5.0,83,0.00,,,0.00,Wunderground v.1.15,2013-02-17 02:10:00,
2013-02-16 20:15:00,30.0,25.8,30.10,SE,131,5.0,8.0,84,0.00,,,0.00,Wunderground v.1.15,2013-02-17 02:15:00,
2013-02-16 20:25:00,30.1,25.8,30.10,SE,135,5.0,6.0,84,0.00,,,0.00,Wunderground v.1.15,2013-02-17 02:25:00,
2013-02-16 20:35:00,30.0,25.8,30.10,SSE,152,5.0,7.0,84,0.00,,,0.00,Wunderground v.1.15,2013-02-17 02:35:00,
2013-02-16 20:45:00,30.0,25.8,30.10,SE,136,4.0,4.0,84,0.00,,,0.00,Wunderground v.1.15,2013-02-17 02:45:00,
2013-02-16 20:55:00,29.9,25.7,30.09,SE,142,4.0,5.0,84,0.00,,,0.00,Wunderground v.1.15,2013-02-17 02:55:00,
2013-02-16 21:00:00,29.9,25.7,30.09,SSE,160,4.0,4.0,84,0.00,,,0.00,Wunderground v.1.15,2013-02-17 03:00:00,
2013-02-16 21:10:00,29.9,25.7,30.09,SSE,150,5.0,5.0,84,0.00,,,0.00,Wunderground v.1.15,2013-02-17 03:10:00,
2013-02-16 21:20:00,29.8,25.6,30.09,SSE,150,4.0,6.0,84,0.00,,,0.00,Wunderground v.1.15,2013-02-17 03:20:00,
2013-02-16 21:25:00,29.9,25.7,30.09,SSE,150,5.0,6.0,84,0.00,,,0.00,Wunderground v.1.15,2013-02-17 03:25:00,
2013-02-16 21:35:00,29.9,25.4,30.09,SE,142,5.0,6.0,83,0.00,,,0.00,Wunderground v.1.15,2013-02-17 03:35:00,
2013-02-16 21:40:00,29.9,25.4,30.09,SSE,165,5.0,5.0,83,0.00,,,0.00,Wunderground v.1.15,2013-02-17 03:40:00,
2013-02-16 21:50:00,29.9,25.4,30.09,SE,141,4.0,4.0,83,0.00,,,0.00,Wunderground v.1.15,2013-02-17 03:50:00,
2013-02-16 22:00:00,29.8,25.3,30.09,SE,141,4.0,6.0,83,0.00,,,0.00,Wunderground v.1.15,2013-02-17 04:00:00,
2013-02-16 22:10:00,29.6,25.1,30.09,SE,142,3.0,3.0,83,0.00,,,0.00,Wunderground v.1.15,2013-02-17 04:10:00,
2013-02-16 22:20:00,29.4,24.9,30.09,SSE,155,4.0,4.0,83,0.00,,,0.00,Wunderground v.1.15,2013-02-17 04:20:00,
2013-02-16 22:30:00,29.2,24.7,30.08,SE,132,3.0,3.0,83,0.00,,,0.00,Wunderground v.1.15,2013-02-17 04:30:00,
2013-02-16 22:40:00,28.6,24.4,30.08,ESE,120,3.0,3.0,84,0.00,,,0.00,Wunderground v.1.15,2013-02-17 04:40:00,
2013-02-16 22:50:00,28.2,24.3,30.09,SE,132,2.0,2.0,85,0.00,,,0.00,Wunderground v.1.15,2013-02-17 04:50:00,
2013-02-16 23:00:00,27.7,23.8,30.09,SE,140,2.0,3.0,85,0.00,,,0.00,Wunderground v.1.15,2013-02-17 05:00:00,
2013-02-16 23:05:00,27.4,23.5,30.09,SE,128,2.0,5.0,85,0.00,,,0.00,Wunderground v.1.15,2013-02-17 05:05:00,
2013-02-16 23:15:00,26.8,23.2,30.08,SE,134,2.0,2.0,86,0.00,,,0.00,Wunderground v.1.15,2013-02-17 05:15:00,
2013-02-16 23:25:00,26.0,22.7,30.08,ESE,115,1.0,2.0,87,0.00,,,0.00,Wunderground v.1.15,2013-02-17 05:25:00,
2013-02-16 23:30:00,25.8,22.5,30.07,SE,131,1.0,1.0,87,0.00,,,0.00,Wunderground v.1.15,2013-02-17 05:30:00,
2013-02-16 23:35:00,25.6,22.3,30.07,SE,133,1.0,3.0,87,0.00,,,0.00,Wunderground v.1.15,2013-02-17 05:35:00,
2013-02-16 23:45:00,25.7,22.6,30.07,SE,141,1.0,1.0,88,0.00,,,0.00,Wunderground v.1.15,2013-02-17 05:45:00,
2013-02-16 23:55:00,25.4,22.3,30.07,ESE,123,1.0,1.0,88,0.00,,,0.00,Wunderground v.1.15,2013-02-17 05:55:00,